Regional Weather Roundup
Issued by NWS

Home | Current Version | Previous Version | Text Only | Print | Product List | Glossary Off
Versions: 1 2 3 4 5 6 7 8 9 10 11 12 13 14 15 16 17 18 19 20 21 22 23 24 25 26 27 28 29 30 31 32 33 34 35 36 37 38 39 40 41 42 43 44 45 46 47 48 49 50

000
ASUS44 KMEG 011010
RWRTN
TENNESSEE HOURLY STATE WEATHER ROUNDUP
NATIONAL WEATHER SERVICE MEMPHIS TN
500 AM CDT MON SEP 01 2014

TNZ002-004-019-021-049-052-054-088>092-011100-
WEST TENNESSEE

CITY           SKY/WX    TMP DP  RH WIND       PRES   REMARKS
MEMPHIS INTL   PTCLDY    76  73  91 S8        30.00S
NWS MEMPHIS      N/A     76 N/A N/A MISG        N/A
JACKSON        PTCLDY    75  72  90 S7        30.02S
DYERSBURG      PTCLDY    75  64  69 S7        29.99F
UNION CITY     CLEAR     73  72  94 S6        29.98S
PARIS          CLEAR     72  70  94 S7        30.02S
HUNTINGDON     PTCLDY    71  70  97 S6        30.02S
LEXINGTON      CLEAR     73  73 100 S6        30.03F
SAVANNAH       CLEAR     73  73 100 S3        30.06S
$$

TNZ008-025-027-028-033-062-065-066-011100-
NORTH MIDDLE TENNESSEE

CITY           SKY/WX    TMP DP  RH WIND       PRES   REMARKS
NASHVILLE      PTCLDY    74  72  93 S7        30.07S
DICKSON        PTCLDY    72  72 100 S7        30.05S
PORTLAND       PTCLDY    72  72 100 S8        30.06S
CLARKSVILLE    CLOUDY    74  72  93 S8        30.03R
LEBANON        PTCLDY    73  70  91 S5        30.06S
SMYRNA         MOCLDY    73  72  97 S5        30.08S
MURFREESBORO   PTCLDY    74  70  87 CALM      30.08R
COOKEVILLE     PTCLDY    72  70  94 CALM      30.11S
GALLATIN       PTCLDY    72  72 100 CALM      30.08S
CROSSVILLE     CLOUDY    68  66  93 CALM      30.16S
$$

TNZ061-075-076-078-094-096-097-011100-
SOUTH MIDDLE TENNESSEE

CITY           SKY/WX    TMP DP  RH WIND       PRES   REMARKS
LEWISBURG      PTCLDY    74  70  87 S3        30.08S
FAYETTEVILLE   CLEAR     72  70  94 CALM      30.10S
TULLAHOMA      PTCLDY    72  70  94 CALM      30.12S
WINCHESTER     CLEAR     72  70  94 SE5       30.11S
MCMINNVILLE    PTCLDY    72  72 100 CALM      30.11S
COLUMBIA         N/A     75  75 100 S3        30.06S
SHELBYVILLE    PTCLDY    73  72  94 SE3       30.10S
$$

TNZ017-018-042-046-047-011100-
NORTHEAST TENNESSEE

CITY           SKY/WX    TMP DP  RH WIND       PRES   REMARKS
TRI CITIES     CLOUDY    70  68  93 CALM      30.15S FOG
ELIZABETHTON   PTSUNNY   66  66 100 CALM      30.17R
$$

TNZ012-013-036-069-073-074-011100-
CENTRAL EAST TENNESSEE

CITY           SKY/WX    TMP DP  RH WIND       PRES   REMARKS
KNOXVILLE      CLOUDY    71  69  93 SE5       30.12R
OAK RIDGE      MOCLDY    71  69  93 CALM      30.14R
GATLINBURG     SUNNY     68  68 100 CALM      30.13S
MORRISTOWN     MOSUNNY   68  68 100 CALM      30.15S
$$

TNZ083-085-099-011100-
SOUTHEAST TENNESSEE

CITY           SKY/WX    TMP DP  RH WIND       PRES   REMARKS
CHATTANOOGA    CLOUDY    73  70  90 NW3       30.12R
$$

SKY/WX REPORTED AS FAIR MEANS FEW OR NO CLOUDS BELOW
12 THOUSAND FEET.




USA.gov is the U.S. government's official web portal to all federal, state and local government web resources and services.